Location: Sternwarte Stuttgart
(48.7670°N, 9.1830°E)
Time: 22:16:00
(UTC+01:00)

ISS - All Passes

Search period start: 09 December 2016 00:00
Search period end: 19 December 2016 00:00
Orbit: 401 x 410 km, 51.6° (Epoch: 10 December)

Date Brightness Start Highest point End Pass type
(mag) Time Alt. Az. Time Alt. Az. Time Alt. Az.
09 Dec - 15:35:00 10° SSW 15:37:51 28° SE 15:40:44 10° E daylight
09 Dec - 17:10:52 10° WSW 17:14:10 74° NNW 17:17:29 10° ENE visible
09 Dec - 18:47:41 10° WNW 18:50:55 49° N 18:54:09 10° E visible
09 Dec - 20:24:16 10° WNW 20:27:35 84° SSW 20:30:55 10° ESE visible
09 Dec - 22:01:19 10° W 22:03:43 19° SW 22:06:08 10° S night (unlit)
10 Dec - 14:43:48 10° S 14:46:04 17° SE 14:48:20 10° E daylight
10 Dec - 16:18:53 10° WSW 16:22:10 80° SSE 16:25:29 10° ENE daylight
10 Dec - 17:55:36 10° W 17:58:51 49° N 18:02:04 10° ENE visible
10 Dec - 19:32:17 10° WNW 19:35:36 72° NNE 19:38:54 10° ESE visible
10 Dec - 21:08:59 10° W 21:11:55 30° SW 21:14:51 10° SSE night (unlit)
11 Dec - 13:53:42 10° SE 13:54:21 10° SE 13:54:58 10° ESE daylight
11 Dec - 15:27:00 10° SW 15:30:13 53° SSE 15:33:28 10° ENE daylight
11 Dec - 17:03:30 10° W 17:06:45 55° N 17:10:01 10° ENE visible
11 Dec - 18:40:16 10° WNW 18:43:33 57° N 18:46:49 10° E visible
11 Dec - 20:16:50 10° WNW 20:20:02 47° SSW 20:23:14 10° SE visible
12 Dec - 14:35:19 10° SSW 14:38:18 33° SSE 14:41:20 10° E daylight
12 Dec - 16:11:24 10° W 16:14:41 67° NNW 16:17:59 10° ENE daylight
12 Dec - 17:48:13 10° WNW 17:51:27 50° N 17:54:42 10° E visible
12 Dec - 19:24:47 10° WNW 19:28:05 73° SSW 19:31:23 10° ESE visible
12 Dec - 21:02:04 10° W 21:04:08 16° SW 21:06:12 10° S night (unlit)
13 Dec - 13:43:55 10° SSW 13:46:27 21° SE 13:49:01 10° E daylight
13 Dec - 15:19:21 10° WSW 15:22:39 89° N 15:25:58 10° ENE daylight
13 Dec - 16:56:07 10° WNW 16:59:20 48° N 17:02:34 10° ENE visible
13 Dec - 18:32:45 10° WNW 18:36:04 80° NNE 18:39:23 10° ESE visible
13 Dec - 20:09:32 10° W 20:12:19 25° SW 20:15:06 10° SSE visible
14 Dec - 12:53:07 10° SSE 12:54:40 13° SE 12:56:14 10° ESE daylight
14 Dec - 14:27:23 10° SW 14:30:38 62° SSE 14:33:54 10° ENE daylight
14 Dec - 16:03:59 10° W 16:07:13 52° N 16:10:28 10° ENE daylight
14 Dec - 17:40:43 10° WNW 17:43:59 61° NNE 17:47:17 10° E visible
14 Dec - 19:17:19 10° WNW 19:20:26 39° SSW 19:23:32 10° SE visible
15 Dec - 13:35:34 10° SW 13:38:40 39° SSE 13:41:46 10° ENE daylight
15 Dec - 15:11:51 10° W 15:15:06 61° NNW 15:18:23 10° ENE daylight
15 Dec - 16:48:38 10° WNW 16:51:53 52° N 16:55:07 10° E daylight
15 Dec - 18:25:11 10° WNW 18:28:27 62° SSW 18:31:44 10° SE visible
15 Dec - 20:02:51 10° WSW 20:04:26 13° SW 20:06:00 10° SSW visible
16 Dec - 12:44:01 10° SSW 12:46:45 25° SE 12:49:30 10° E daylight
16 Dec - 14:19:43 10° WSW 14:23:01 80° NNW 14:26:18 10° ENE daylight
16 Dec - 15:56:31 10° WNW 15:59:43 48° N 16:02:57 10° ENE daylight
16 Dec - 17:33:06 10° WNW 17:36:25 90° NNE 17:39:44 10° ESE visible
16 Dec - 19:10:02 10° W 19:12:36 21° SW 19:15:10 10° SSE visible
17 Dec - 11:52:52 10° S 11:54:54 15° SE 11:56:56 10° E daylight
17 Dec - 13:27:40 10° WSW 13:30:56 73° SSE 13:34:14 10° ENE daylight
17 Dec - 15:04:21 10° W 15:07:34 50° N 15:10:48 10° ENE daylight
17 Dec - 16:41:02 10° WNW 16:44:19 67° NNE 16:47:37 10° E daylight
17 Dec - 18:17:41 10° W 18:20:42 33° SW 18:23:42 10° SSE visible
18 Dec - 12:35:45 10° SW 12:38:55 47° SSE 12:42:06 10° ENE daylight
18 Dec - 14:12:10 10° W 14:15:25 57° N 14:18:40 10° ENE daylight
18 Dec - 15:48:56 10° WNW 15:52:11 55° N 15:55:26 10° E daylight
18 Dec - 17:25:29 10° WNW 17:28:43 52° SSW 17:31:57 10° SE visible
18 Dec - 19:03:56 10° WSW 19:04:36 10° SW 19:05:15 10° SW visible
